#timestamp,LO_Frequency,Hit,StdDev 
1553900415.9,286047002.3,N
1553900435.7,286047002.5,N
1553900455.6,286046999.9,N
1553900475.4,286046998.1,N
1553900495.2,286046999.9,N
1553900515.1,286047002.4,N
1553900516.0,286047002.4,N
1553900535.8,286047004.4,N
1553900555.7,286047003.2,N
1553900575.5,286047007.2,Y
1553900595.3,286047004.8,P
1553900615.2,286047009.2,P
1553900635.0,286047005.7,N
1553900635.9,286047005.7,N
1553900655.7,286047003.3,N
1553900675.6,286047005.6,N
1553900695.4,286047004.2,N
1553900715.3,286047004.3,N
1553900735.1,286046999.7,N
1553900736.0,286046999.7,N
1553900755.8,286047000.9,N
1553900775.7,286047000.3,N
1553900795.5,286047001.2,N
1553900815.3,286046998.4,N
1553900835.2,286047000.6,N
1553900855.0,286047004.3,N
1553900855.9,286047004.3,N
1553900875.8,286047001.6,N
1553900895.6,286047003.2,N
1553900915.4,286047001.7,N
1553900935.3,286047003.9,N
1553900955.1,286047007.3,N
1553900975.8,286047005.8,N
1553900995.7,286047003.6,N
1553901015.5,286047003.2,N
1553901035.4,286047007.5,N
1553901055.2,286047007.4,N
1553901075.0,286047005.9,N
1553901075.9,286047005.9,N
1553901095.8,286047005.2,N
1553901115.6,286047001.8,N
1553901135.5,286047001.5,N
1553901155.3,286047004.0,N
1553901175.1,286047001.5,N
1553901195.9,286047002.5,N
1553901215.7,286047002.0,N
1553901235.5,286047004.4,N
1553901255.4,286046999.7,N
1553901275.2,286047003.4,N
1553901295.1,286047002.9,N
1553901296.0,286047002.9,N
1553901315.8,286047004.4,N
1553901335.6,286047002.6,N
1553901355.5,286047000.6,N
1553901375.3,286046999.9,N
1553901395.1,286047002.0,N
1553901415.9,286046999.8,N
1553901435.7,286047000.2,N
1553901455.6,286047000.3,N
1553901475.4,286047000.6,N
1553901495.2,286046999.8,N
1553901515.1,286047000.6,N
1553901516.0,286047000.6,N
1553901535.8,286047001.2,N
1553901555.7,286046999.8,N
1553901575.5,286046999.2,N
1553901595.3,286046998.6,N
1553901615.2,286046998.8,N
1553901635.0,286047002.0,N
1553901635.9,286047002.0,N
1553901655.7,286047002.3,N
1553901675.6,286047000.2,N
1553901695.4,286047002.0,N
1553901715.3,286047002.3,N
1553901735.1,286047004.0,N
1553901755.8,286047005.2,Y
1553901775.7,286047001.7,P
1553901795.5,286047003.6,P
1553901815.4,286047003.4,P
1553901835.2,286047002.4,N
1553901855.0,286046999.8,N
1553901855.9,286046999.8,N
1553901875.8,286046998.2,N
1553901895.6,286046998.5,N
1553901915.4,286047000.0,N
1553901935.3,286047002.3,N
1553901955.1,286047001.7,N
1553901975.9,286047003.9,N
1553901995.7,286047003.6,N
1553902015.5,286047003.5,N
1553902035.4,286047002.9,N
1553902055.2,286047002.1,N
1553902075.1,286047000.5,N
1553902076.0,286047000.5,N
1553902095.8,286047002.3,N
1553902115.6,286047001.6,N
1553902135.5,286047002.1,N
1553902155.3,286047001.4,N
1553902175.1,286047002.6,N
1553902195.9,286047000.5,N
1553902215.7,286047002.3,N
1553902235.6,286047000.1,N
1553902255.4,286047000.1,N
1553902275.2,286047001.9,N
1553902295.1,286047001.0,N
1553902296.0,286047001.0,N
1553902315.8,286047001.0,N
1553902335.6,286047000.8,N
1553902355.5,286047001.0,N
1553902375.3,286047001.7,N
1553902395.2,286047000.2,N
1553902415.9,286047000.5,N
1553902435.7,286047002.1,N
1553902455.6,286047004.1,Y
1553902475.4,286047000.2,P
1553902495.2,286046999.9,N
1553902515.1,286047001.8,N
1553902535.2,286047003.9,Y
1553902555.0,286047002.7,P
1553902555.9,286047002.7,N
1553902575.8,286047001.1,N
1553902595.6,286047001.2,N
1553902615.4,286046998.1,N
1553902635.3,286046998.4,N
1553902655.1,286047000.8,N
1553902675.8,286047000.8,N
1553902695.7,286047000.0,N
1553902715.5,286047000.7,N
1553902735.4,286046998.8,N
1553902755.2,286047000.8,N
1553902775.0,286046999.9,N
1553902775.9,286046999.9,N
1553902795.8,286047003.2,N
1553902815.6,286047002.9,N
1553902835.4,286047003.3,N
1553902855.3,286047002.4,N
1553902875.1,286047002.3,N
1553902895.9,286046998.2,N
1553902915.7,286046998.6,N
1553902935.5,286047000.9,N
1553902955.4,286047002.5,N
1553902975.2,286047002.0,N
1553902995.1,286047001.4,N
1553902996.0,286047001.4,N
1553903015.8,286047003.6,N
1553903035.6,286047001.7,N
1553903055.5,286047003.2,N
1553903075.3,286047000.0,N
1553903095.2,286047002.7,N
1553903115.9,286047002.4,N
1553903135.5,286047002.2,N
1553903155.3,286047001.9,N
1553903175.1,286047004.2,N
1553903195.9,286047000.9,N
1553903215.7,286047000.0,N
1553903235.6,286047002.2,N
1553903255.4,286047001.7,N
1553903275.2,286047002.2,N
1553903295.1,286046998.6,N
1553903296.0,286046998.6,N
1553903315.8,286046999.3,N
1553903335.7,286046997.2,N
1553903355.5,286046999.2,N
1553903375.3,286046999.3,N
1553903395.2,286046996.9,N
1553903415.0,286046998.5,N
1553903415.9,286046998.5,N
1553903435.8,286046999.8,N
1553903455.6,286046999.7,N
1553903475.4,286047000.1,N
1553903495.3,286046998.3,N
1553903515.1,286046998.3,N
1553903535.8,286047000.6,N
1553903555.7,286046999.9,N
1553903575.5,286046998.5,N
1553903595.4,286047000.8,N
1553903615.2,286047000.3,N
1553903635.0,286047002.8,N
1553903635.9,286047002.8,N
1553903655.8,286047001.0,N
1553903675.6,286047000.8,N
1553903695.5,286047000.1,N
1553903715.3,286047000.1,N
1553903735.1,286047001.1,N
1553903755.9,286047001.0,N
1553903775.7,286047001.1,N
1553903795.5,286046998.6,N
1553903815.4,286047002.7,N
1553903835.2,286047001.6,N
1553903855.0,286047004.0,N
1553903856.0,286047004.0,N
1553903875.8,286047003.2,N
1553903895.6,286047003.4,N
1553903915.5,286047004.0,N
1553903935.3,286047001.4,N
1553903955.1,286047003.6,N
1553903975.9,286047002.4,N
1553903995.7,286047001.9,N
